| time (UTC) | temp F | wind direction | speed MPH | gust MPH | rain 1hr in | rain 24hr in | rain mn in | humidity % | barometer mb |
| 20260506005003 | 50 | 306 | 0.0 | 3.0 | 0.00 | 0.46 | 0.00 | 89 | 1013.8 |
| 20260506004504 | 50 | 306 | 0.0 | 3.0 | 0.00 | 0.46 | 0.00 | 89 | 1013.8 |
| 20260506004017 | 50 | 307 | 1.0 | 3.0 | 0.00 | 0.46 | 0.00 | 89 | 1013.9 |
| 20260506003503 | 50 | 308 | 1.0 | 3.0 | 0.00 | 0.46 | 0.00 | 88 | 1014.0 |
| 20260506003003 | 50 | 308 | 1.0 | 3.0 | 0.00 | 0.46 | 0.00 | 89 | 1014.2 |
| 20260506002503 | 50 | 308 | 1.0 | 2.0 | 0.00 | 0.46 | 0.00 | 89 | 1014.1 |
| 20260506002003 | 50 | 308 | 1.0 | 3.0 | 0.00 | 0.46 | 0.00 | 89 | 1014.2 |
| 20260506001503 | 50 | 308 | 1.0 | 3.0 | 0.00 | 0.46 | 0.00 | 89 | 1014.1 |
| 20260506001017 | 50 | 307 | 1.0 | 3.0 | 0.00 | 0.46 | 0.00 | 89 | 1014.1 |
| 20260506000517 | 50 | 302 | 2.0 | 4.0 | 0.00 | 0.46 | 0.00 | 89 | 1014.1 |
| 20260506000003 | 50 | 294 | 1.0 | 4.0 | 0.00 | 0.46 | 0.00 | 89 | 1014.1 |
| 20260505235517 | 50 | 285 | 1.0 | 4.0 | 0.00 | 0.46 | 0.00 | 89 | 1014.1 |
| 20260505235003 | 50 | 289 | 2.0 | 4.0 | 0.00 | 0.46 | 0.00 | 89 | 1014.2 |
| 20260505234503 | 50 | 301 | 1.0 | 4.0 | 0.00 | 0.46 | 0.00 | 89 | 1014.3 |
| 20260505234017 | 50 | 322 | 0.0 | 2.0 | 0.00 | 0.46 | 0.00 | 90 | 1014.3 |
| 20260505233517 | 50 | 322 | 0.0 | 1.0 | 0.00 | 0.46 | 0.00 | 90 | 1014.3 |
| 20260505233003 | 50 | 0 | 0.0 | 0.0 | 0.00 | 0.46 | 0.00 | 89 | 1014.4 |
| 20260505232503 | 50 | 0 | 0.0 | 0.0 | 0.00 | 0.46 | 0.00 | 89 | 1014.3 |
| 20260505232003 | 50 | 0 | 0.0 | 0.0 | 0.00 | 0.46 | 0.00 | 89 | 1014.3 |
| 20260505231503 | 51 | 0 | 0.0 | 0.0 | 0.00 | 0.46 | 0.00 | 89 | 1014.3 |
| 20260505231017 | 50 | 322 | 0.0 | 1.0 | 0.00 | 0.46 | 0.00 | 89 | 1014.3 |
| 20260505230503 | 51 | 322 | 0.0 | 1.0 | 0.00 | 0.47 | 0.00 | 89 | 1014.2 |
| 20260505230003 | 51 | 322 | 0.0 | 1.0 | 0.00 | 0.48 | 0.00 | 89 | 1014.2 |
| 20260505225503 | 51 | 322 | 0.0 | 1.0 | 0.00 | 0.49 | 0.00 | 89 | 1014.2 |
| 20260505225003 | 51 | 319 | 0.0 | 1.0 | 0.00 | 0.49 | 0.00 | 89 | 1014.3 |
| 20260505224503 | 51 | 313 | 1.0 | 3.0 | 0.00 | 0.50 | 0.00 | 89 | 1014.3 |
| 20260505224017 | 51 | 313 | 1.0 | 3.0 | 0.00 | 0.50 | 0.00 | 89 | 1014.3 |
| 20260505223503 | 51 | 313 | 1.0 | 2.0 | 0.00 | 0.50 | 0.00 | 89 | 1014.3 |
| 20260505223003 | 51 | 313 | 0.0 | 2.0 | 0.00 | 0.50 | 0.00 | 89 | 1014.3 |
| 20260505222503 | 51 | 321 | 0.0 | 5.0 | 0.00 | 0.51 | 0.00 | 89 | 1014.4 |
| 20260505222003 | 51 | 325 | 0.0 | 5.0 | 0.00 | 0.52 | 0.00 | 89 | 1014.4 |
| 20260505221503 | 50 | 336 | 0.0 | 1.0 | 0.00 | 0.54 | 0.00 | 90 | 1014.5 |
| 20260505221003 | 50 | 336 | 0.0 | 2.0 | 0.00 | 0.57 | 0.00 | 90 | 1014.6 |
| 20260505220517 | 50 | 336 | 1.0 | 3.0 | 0.00 | 0.57 | 0.00 | 90 | 1014.5 |
| 20260505220003 | 50 | 305 | 2.0 | 4.0 | 0.00 | 0.57 | 0.00 | 90 | 1014.6 |
| 20260505215503 | 50 | 215 | 1.0 | 4.0 | 0.00 | 0.57 | 0.57 | 90 | 1014.8 |
| 20260505215003 | 51 | 179 | 0.0 | 2.0 | 0.00 | 0.57 | 0.57 | 89 | 1014.7 |
| 20260505214503 | 51 | 179 | 0.0 | 1.0 | 0.00 | 0.57 | 0.57 | 90 | 1014.7 |
| 20260505214003 | 50 | 178 | 0.0 | 2.0 | 0.00 | 0.57 | 0.57 | 89 | 1014.6 |
| 20260505213503 | 50 | 179 | 1.0 | 3.0 | 0.00 | 0.57 | 0.57 | 89 | 1014.6 |
| 20260505213017 | 50 | 179 | 1.0 | 4.0 | 0.00 | 0.57 | 0.57 | 89 | 1014.7 |
| 20260505212503 | 50 | 180 | 0.0 | 4.0 | 0.00 | 0.57 | 0.57 | 89 | 1014.7 |
| 20260505212003 | 51 | 0 | 0.0 | 0.0 | 0.00 | 0.57 | 0.57 | 88 | 1014.8 |
| 20260505211503 | 51 | 0 | 0.0 | 0.0 | 0.00 | 0.57 | 0.57 | 88 | 1014.8 |
| 20260505211003 | 51 | 0 | 0.0 | 0.0 | 0.00 | 0.57 | 0.57 | 88 | 1014.8 |
| 20260505210503 | 51 | 0 | 0.0 | 0.0 | 0.00 | 0.57 | 0.57 | 87 | 1014.8 |
| 20260505210003 | 51 | 0 | 0.0 | 0.0 | 0.00 | 0.57 | 0.57 | 87 | 1014.7 |
| 20260505205503 | 51 | 0 | 0.0 | 0.0 | 0.00 | 0.57 | 0.57 | 87 | 1014.7 |
| 20260505205003 | 51 | 0 | 0.0 | 0.0 | 0.00 | 0.58 | 0.57 | 87 | 1014.7 |
| 20260505204503 | 51 | 0 | 0.0 | 0.0 | 0.00 | 0.58 | 0.57 | 87 | 1014.8 |
| 20260505204003 | 51 | 297 | 0.0 | 1.0 | 0.00 | 0.58 | 0.57 | 87 | 1014.7 |
| 20260505203503 | 51 | 297 | 0.0 | 3.0 | 0.00 | 0.58 | 0.57 | 87 | 1014.7 |
| 20260505203003 | 52 | 297 | 1.0 | 3.0 | 0.00 | 0.58 | 0.57 | 87 | 1014.6 |
| 20260505202517 | 52 | 305 | 1.0 | 3.0 | 0.00 | 0.58 | 0.57 | 86 | 1014.7 |
| 20260505202003 | 52 | 324 | 1.0 | 3.0 | 0.00 | 0.60 | 0.57 | 86 | 1014.6 |
| 20260505201503 | 52 | 330 | 1.0 | 3.0 | 0.00 | 0.61 | 0.57 | 86 | 1014.7 |
| 20260505201017 | 52 | 328 | 1.0 | 6.0 | 0.00 | 0.61 | 0.57 | 86 | 1014.6 |
| 20260505200503 | 52 | 327 | 1.0 | 6.0 | 0.00 | 0.62 | 0.57 | 86 | 1014.5 |
| 20260505200003 | 52 | 326 | 1.0 | 4.0 | 0.00 | 0.62 | 0.57 | 86 | 1014.5 |
| 20260505195517 | 52 | 333 | 1.0 | 4.0 | 0.00 | 0.63 | 0.57 | 86 | 1014.5 |
| 20260505195017 | 52 | 155 | 1.0 | 4.0 | 0.00 | 0.64 | 0.57 | 86 | 1014.5 |
| 20260505194503 | 52 | 146 | 1.0 | 4.0 | 0.00 | 0.65 | 0.57 | 86 | 1014.5 |
| 20260505194003 | 53 | 327 | 1.0 | 4.0 | 0.00 | 0.65 | 0.57 | 86 | 1014.5 |
| 20260505193503 | 53 | 275 | 2.0 | 5.0 | 0.01 | 0.65 | 0.57 | 86 | 1014.3 |
| 20260505193003 | 53 | 195 | 2.0 | 5.0 | 0.01 | 0.65 | 0.57 | 86 | 1014.4 |
| 20260505192503 | 53 | 235 | 1.0 | 5.0 | 0.01 | 0.65 | 0.57 | 85 | 1014.4 |
| 20260505192003 | 54 | 316 | 1.0 | 5.0 | 0.01 | 0.66 | 0.57 | 86 | 1014.4 |
| 20260505191503 | 54 | 279 | 1.0 | 5.0 | 0.01 | 0.66 | 0.57 | 86 | 1014.3 |
| 20260505191003 | 54 | 308 | 1.0 | 5.0 | 0.01 | 0.66 | 0.57 | 86 | 1014.3 |
| 20260505190503 | 54 | 318 | 0.0 | 2.0 | 0.01 | 0.66 | 0.57 | 86 | 1014.3 |
| 20260505190003 | 54 | 317 | 0.0 | 2.0 | 0.01 | 0.66 | 0.57 | 86 | 1014.2 |
| 20260505185517 | 54 | 317 | 1.0 | 3.0 | 0.01 | 0.66 | 0.57 | 86 | 1014.1 |
| 20260505185003 | 54 | 317 | 0.0 | 3.0 | 0.01 | 0.66 | 0.57 | 86 | 1014.2 |
| 20260505184517 | 55 | 317 | 0.0 | 2.0 | 0.01 | 0.66 | 0.57 | 86 | 1014.1 |
| 20260505184003 | 55 | 317 | 0.0 | 1.0 | 0.01 | 0.66 | 0.57 | 86 | 1014.1 |
| 20260505183503 | 55 | 311 | 0.0 | 3.0 | 0.00 | 0.65 | 0.57 | 86 | 1014.1 |
| 20260505183003 | 55 | 306 | 0.0 | 3.0 | 0.00 | 0.65 | 0.57 | 86 | 1014.1 |
| 20260505182503 | 55 | 299 | 0.0 | 2.0 | 0.00 | 0.65 | 0.57 | 86 | 1014.0 |
| 20260505182003 | 55 | 299 | 0.0 | 2.0 | 0.00 | 0.65 | 0.57 | 85 | 1013.9 |
| 20260505181503 | 55 | 299 | 0.0 | 1.0 | 0.00 | 0.65 | 0.57 | 85 | 1013.9 |
| 20260505181003 | 55 | 299 | 1.0 | 4.0 | 0.00 | 0.65 | 0.57 | 85 | 1013.9 |
| 20260505180517 | 55 | 296 | 1.0 | 4.0 | 0.00 | 0.65 | 0.57 | 85 | 1013.9 |
| 20260505180003 | 55 | 265 | 1.0 | 4.0 | 0.00 | 0.65 | 0.57 | 85 | 1013.9 |
| 20260505175517 | 55 | 247 | 1.0 | 4.0 | 0.00 | 0.65 | 0.57 | 84 | 1013.8 |
| 20260505175003 | 55 | 204 | 1.0 | 3.0 | 0.00 | 0.65 | 0.57 | 85 | 1013.9 |
| 20260505174503 | 56 | 184 | 0.0 | 3.0 | 0.00 | 0.65 | 0.57 | 85 | 1013.9 |
| 20260505174003 | 56 | 0 | 0.0 | 0.0 | 0.00 | 0.65 | 0.57 | 85 | 1014.0 |
| 20260505173503 | 56 | 189 | 0.0 | 3.0 | 0.00 | 0.65 | 0.57 | 85 | 1014.0 |
| 20260505173003 | 56 | 189 | 0.0 | 3.0 | 0.00 | 0.65 | 0.57 | 85 | 1014.1 |
| 20260505172503 | 56 | 203 | 1.0 | 3.0 | 0.00 | 0.65 | 0.57 | 85 | 1014.0 |
| 20260505172003 | 55 | 209 | 1.0 | 3.0 | 0.00 | 0.65 | 0.57 | 84 | 1014.2 |
| 20260505171503 | 56 | 194 | 1.0 | 3.0 | 0.00 | 0.65 | 0.57 | 85 | 1014.2 |
| 20260505171003 | 56 | 165 | 1.0 | 4.0 | 0.00 | 0.65 | 0.57 | 85 | 1014.3 |
| 20260505170503 | 55 | 175 | 1.0 | 4.0 | 0.00 | 0.65 | 0.57 | 85 | 1014.3 |
| 20260505170003 | 56 | 208 | 2.0 | 6.0 | 0.00 | 0.65 | 0.57 | 84 | 1014.3 |
| 20260505165503 | 56 | 209 | 2.0 | 6.0 | 0.00 | 0.65 | 0.57 | 84 | 1014.3 |
| 20260505165003 | 56 | 167 | 2.0 | 5.0 | 0.00 | 0.65 | 0.57 | 85 | 1014.4 |
| 20260505164503 | 56 | 140 | 1.0 | 5.0 | 0.00 | 0.65 | 0.57 | 86 | 1014.3 |
| 20260505164003 | 56 | 161 | 2.0 | 5.0 | 0.01 | 0.65 | 0.57 | 87 | 1014.2 |
| 20260505163504 | 56 | 172 | 2.0 | 4.0 | 0.02 | 0.65 | 0.57 | 87 | 1014.2 |
| 20260505163107 | 55 | 180 | 1.0 | 4.0 | 0.02 | 0.66 | 0.56 | 88 | 1014.0 |
| 20260505163003 | 55 | 157 | 1.0 | 4.0 | 0.02 | 0.65 | 0.57 | 89 | 1014.3 |
| 20260505162503 | 55 | 337 | 0.0 | 4.0 | 0.03 | 0.65 | 0.57 | 89 | 1014.3 |
| 20260505162003 | 55 | 318 | 0.0 | 2.0 | 0.03 | 0.66 | 0.57 | 89 | 1014.2 |
| 20260505161503 | 54 | 319 | 1.0 | 3.0 | 0.03 | 0.66 | 0.57 | 90 | 1014.2 |
| 20260505161018 | 54 | 319 | 1.0 | 3.0 | 0.03 | 0.66 | 0.57 | 90 | 1014.2 |
| 20260505160503 | 54 | 319 | 0.0 | 3.0 | 0.03 | 0.66 | 0.57 | 89 | 1014.2 |
| 20260505153003 | 54 | 308 | 2.0 | 6.0 | 0.03 | 0.64 | 0.54 | 89 | 1014.3 |
| 20260505152503 | 54 | 290 | 2.0 | 6.0 | 0.02 | 0.63 | 0.54 | 89 | 1014.4 |
| 20260505152003 | 54 | 229 | 1.0 | 5.0 | 0.02 | 0.63 | 0.54 | 89 | 1014.3 |
| 20260505151503 | 54 | 216 | 1.0 | 5.0 | 0.03 | 0.63 | 0.54 | 90 | 1014.4 |
| 20260505151003 | 54 | 196 | 1.0 | 5.0 | 0.03 | 0.63 | 0.54 | 90 | 1014.4 |
| 20260505150503 | 54 | 187 | 1.0 | 3.0 | 0.04 | 0.63 | 0.54 | 91 | 1014.4 |
| 20260505140503 | 53 | 167 | 1.0 | 6.0 | 0.07 | 0.59 | 0.50 | 91 | 1014.4 |
| 20260505125003 | 54 | 160 | 1.0 | 4.0 | 0.08 | 0.51 | 0.41 | 86 | 1014.6 |
| 20260505124504 | 54 | 169 | 2.0 | 4.0 | 0.07 | 0.50 | 0.40 | 85 | 1014.5 |
| 20260505124003 | 54 | 255 | 2.0 | 7.0 | 0.07 | 0.50 | 0.40 | 84 | 1014.5 |
| 20260505123503 | 55 | 249 | 2.0 | 7.0 | 0.06 | 0.50 | 0.39 | 84 | 1014.6 |
| 20260505123003 | 55 | 133 | 1.0 | 5.0 | 0.06 | 0.50 | 0.39 | 83 | 1014.6 |
| 20260505122503 | 56 | 345 | 2.0 | 5.0 | 0.06 | 0.50 | 0.39 | 81 | 1014.5 |
| 20260505122003 | 57 | 352 | 2.0 | 4.0 | 0.03 | 0.48 | 0.36 | 80 | 1014.6 |
| 20260505121503 | 57 | 47 | 1.0 | 4.0 | 0.00 | 0.45 | 0.33 | 80 | 1014.4 |
| 20260505121003 | 58 | 79 | 1.0 | 5.0 | 0.00 | 0.45 | 0.33 | 80 | 1014.2 |
| 20260505120503 | 58 | 142 | 2.0 | 5.0 | 0.00 | 0.45 | 0.33 | 79 | 1014.2 |
| 20260505120004 | 58 | 171 | 2.0 | 5.0 | 0.00 | 0.45 | 0.33 | 79 | 1014.2 |
| 20260505115503 | 58 | 169 | 2.0 | 5.0 | 0.00 | 0.45 | 0.33 | 79 | 1014.2 |
| 20260505115003 | 58 | 148 | 2.0 | 6.0 | 0.00 | 0.45 | 0.33 | 78 | 1014.2 |
| 20260505114503 | 59 | 137 | 3.0 | 7.0 | 0.00 | 0.45 | 0.33 | 79 | 1014.2 |
| 20260505114004 | 59 | 140 | 4.0 | 8.0 | 0.00 | 0.45 | 0.33 | 78 | 1014.3 |
| 20260505113503 | 59 | 148 | 3.0 | 8.0 | 0.00 | 0.45 | 0.33 | 79 | 1014.3 |
| 20260505113003 | 59 | 150 | 2.0 | 7.0 | 0.00 | 0.45 | 0.33 | 78 | 1014.4 |
| 20260505112503 | 59 | 145 | 2.0 | 6.0 | 0.00 | 0.45 | 0.33 | 79 | 1014.2 |
| 20260505112003 | 59 | 146 | 2.0 | 7.0 | 0.00 | 0.45 | 0.33 | 79 | 1014.4 |
| 20260505111503 | 59 | 129 | 2.0 | 7.0 | 0.00 | 0.45 | 0.33 | 79 | 1014.3 |
| 20260505111003 | 58 | 136 | 2.0 | 7.0 | 0.00 | 0.45 | 0.33 | 80 | 1014.4 |
| 20260505110503 | 58 | 159 | 3.0 | 7.0 | 0.00 | 0.46 | 0.33 | 79 | 1014.4 |
| 20260505102003 | 59 | 163 | 3.0 | 7.0 | 0.00 | 0.46 | 0.33 | 72 | 1014.4 |
| 20260505101517 | 58 | 177 | 2.0 | 6.0 | 0.00 | 0.46 | 0.33 | 72 | 1014.5 |
| 20260505101003 | 58 | 187 | 3.0 | 6.0 | 0.00 | 0.46 | 0.33 | 73 | 1014.4 |
| 20260505100503 | 58 | 237 | 3.0 | 6.0 | 0.00 | 0.46 | 0.33 | 71 | 1014.6 |
| 20260505100003 | 58 | 261 | 4.0 | 11.0 | 0.00 | 0.46 | 0.33 | 74 | 1014.5 |
| 20260505095503 | 58 | 264 | 4.0 | 11.0 | 0.00 | 0.46 | 0.33 | 70 | 1014.5 |
| 20260505095003 | 58 | 279 | 3.0 | 9.0 | 0.00 | 0.46 | 0.33 | 74 | 1014.5 |
| 20260505094503 | 58 | 179 | 2.0 | 7.0 | 0.00 | 0.46 | 0.33 | 76 | 1014.5 |
| 20260505094003 | 58 | 163 | 2.0 | 7.0 | 0.00 | 0.46 | 0.33 | 79 | 1014.5 |
| 20260505093503 | 58 | 171 | 3.0 | 7.0 | 0.00 | 0.46 | 0.33 | 82 | 1014.4 |
| 20260505093004 | 57 | 173 | 3.0 | 7.0 | 0.00 | 0.46 | 0.33 | 82 | 1014.4 |
| 20260505092503 | 56 | 173 | 3.0 | 6.0 | 0.00 | 0.46 | 0.33 | 83 | 1014.4 |
| 20260505092003 | 56 | 193 | 3.0 | 6.0 | 0.00 | 0.47 | 0.33 | 85 | 1014.4 |
| 20260505091503 | 55 | 198 | 3.0 | 7.0 | 0.00 | 0.48 | 0.33 | 87 | 1014.3 |
| 20260505091003 | 54 | 166 | 3.0 | 7.0 | 0.00 | 0.50 | 0.33 | 89 | 1014.4 |
| 20260505090503 | 54 | 187 | 2.0 | 7.0 | 0.00 | 0.50 | 0.33 | 91 | 1014.3 |
| 20260505090017 | 54 | 276 | 1.0 | 4.0 | 0.01 | 0.52 | 0.33 | 93 | 1014.3 |
| 20260505085517 | 54 | 267 | 2.0 | 4.0 | 0.01 | 0.54 | 0.33 | 93 | 1014.3 |
| 20260505085004 | 53 | 229 | 1.0 | 3.0 | 0.02 | 0.54 | 0.33 | 93 | 1014.3 |
| 20260505084503 | 53 | 209 | 1.0 | 3.0 | 0.02 | 0.54 | 0.33 | 93 | 1014.3 |
| 20260505084017 | 52 | 227 | 1.0 | 3.0 | 0.02 | 0.54 | 0.33 | 94 | 1014.3 |
| 20260505083517 | 52 | 270 | 2.0 | 3.0 | 0.02 | 0.54 | 0.33 | 93 | 1014.4 |
| 20260505083003 | 52 | 298 | 2.0 | 4.0 | 0.03 | 0.55 | 0.33 | 93 | 1014.4 |
| 20260505082504 | 51 | 296 | 2.0 | 4.0 | 0.03 | 0.55 | 0.33 | 93 | 1014.5 |
| 20260505082003 | 51 | 295 | 1.0 | 4.0 | 0.04 | 0.55 | 0.33 | 93 | 1014.5 |
| 20260505081503 | 51 | 307 | 1.0 | 4.0 | 0.04 | 0.57 | 0.33 | 93 | 1014.6 |
| 20260505081003 | 51 | 331 | 1.0 | 3.0 | 0.06 | 0.57 | 0.33 | 93 | 1014.6 |
| 20260505080503 | 51 | 337 | 1.0 | 2.0 | 0.07 | 0.57 | 0.33 | 93 | 1014.6 |
| 20260505080003 | 50 | 338 | 1.0 | 2.0 | 0.08 | 0.57 | 0.32 | 93 | 1014.5 |
| 20260505075503 | 50 | 338 | 1.0 | 3.0 | 0.09 | 0.57 | 0.32 | 93 | 1014.5 |
| 20260505075017 | 50 | 338 | 1.0 | 3.0 | 0.09 | 0.56 | 0.31 | 93 | 1014.5 |
| 20260505074517 | 50 | 338 | 1.0 | 2.0 | 0.09 | 0.55 | 0.31 | 93 | 1014.6 |
| 20260505074003 | 51 | 338 | 1.0 | 3.0 | 0.09 | 0.55 | 0.31 | 93 | 1014.6 |
| 20260505073517 | 51 | 338 | 1.0 | 3.0 | 0.10 | 0.55 | 0.31 | 93 | 1014.7 |
| 20260505073003 | 51 | 338 | 1.0 | 3.0 | 0.10 | 0.54 | 0.30 | 93 | 1014.6 |
| 20260505072503 | 51 | 338 | 1.0 | 2.0 | 0.11 | 0.54 | 0.30 | 93 | 1014.5 |
| 20260505072017 | 51 | 338 | 1.0 | 2.0 | 0.13 | 0.54 | 0.29 | 93 | 1014.6 |
| 20260505071503 | 51 | 338 | 1.0 | 2.0 | 0.14 | 0.54 | 0.29 | 93 | 1014.5 |
| 20260505071003 | 51 | 338 | 1.0 | 2.0 | 0.14 | 0.53 | 0.28 | 93 | 1014.5 |
| 20260505070503 | 51 | 331 | 2.0 | 4.0 | 0.13 | 0.51 | 0.26 | 93 | 1014.4 |
| 20260505070003 | 51 | 321 | 2.0 | 5.0 | 0.11 | 0.50 | 0.24 | 93 | 1014.4 |
| 20260505065517 | 51 | 275 | 1.0 | 5.0 | 0.10 | 0.49 | 0.24 | 93 | 1014.3 |
| 20260505065003 | 51 | 227 | 1.0 | 3.0 | 0.09 | 0.48 | 0.23 | 93 | 1014.4 |
| 20260505064503 | 51 | 296 | 1.0 | 3.0 | 0.09 | 0.47 | 0.22 | 93 | 1014.3 |
| 20260505064003 | 51 | 279 | 1.0 | 3.0 | 0.08 | 0.46 | 0.21 | 93 | 1014.3 |
| 20260505063503 | 51 | 179 | 2.0 | 4.0 | 0.07 | 0.46 | 0.20 | 93 | 1014.3 |
| 20260505063003 | 51 | 170 | 2.0 | 5.0 | 0.06 | 0.45 | 0.20 | 93 | 1014.3 |
| 20260505062503 | 51 | 159 | 2.0 | 5.0 | 0.06 | 0.44 | 0.19 | 93 | 1014.4 |
| 20260505062003 | 52 | 146 | 1.0 | 5.0 | 0.03 | 0.42 | 0.17 | 93 | 1014.2 |
| 20260505061503 | 52 | 144 | 1.0 | 3.0 | 0.02 | 0.40 | 0.15 | 92 | 1014.2 |
| 20260505061003 | 52 | 145 | 1.0 | 2.0 | 0.00 | 0.39 | 0.13 | 93 | 1014.1 |
| 20260505060503 | 52 | 178 | 1.0 | 2.0 | 0.00 | 0.39 | 0.13 | 93 | 1014.0 |
| 20260505060003 | 52 | 255 | 0.0 | 2.0 | 0.00 | 0.39 | 0.13 | 92 | 1014.1 |
| 20260505055503 | 52 | 255 | 0.0 | 2.0 | 0.00 | 0.39 | 0.13 | 93 | 1014.1 |
| 20260505055003 | 52 | 255 | 1.0 | 2.0 | 0.00 | 0.39 | 0.13 | 92 | 1014.1 |
| 20260505054503 | 52 | 255 | 1.0 | 2.0 | 0.00 | 0.39 | 0.13 | 92 | 1014.1 |
| 20260505054003 | 52 | 255 | 1.0 | 2.0 | 0.00 | 0.39 | 0.13 | 93 | 1013.9 |
| 20260505053503 | 52 | 255 | 1.0 | 2.0 | 0.00 | 0.39 | 0.13 | 92 | 1014.0 |
| 20260505053003 | 52 | 255 | 1.0 | 3.0 | 0.00 | 0.39 | 0.13 | 93 | 1014.0 |
| 20260505052503 | 51 | 254 | 1.0 | 3.0 | 0.00 | 0.39 | 0.13 | 93 | 1013.9 |
| 20260505052003 | 51 | 254 | 1.0 | 2.0 | 0.00 | 0.39 | 0.13 | 93 | 1013.9 |
| 20260505051503 | 51 | 253 | 1.0 | 2.0 | 0.00 | 0.39 | 0.13 | 92 | 1013.9 |
| 20260505051003 | 51 | 253 | 0.0 | 2.0 | 0.00 | 0.39 | 0.13 | 92 | 1014.0 |
| 20260505050503 | 52 | 253 | 0.0 | 1.0 | 0.00 | 0.39 | 0.13 | 92 | 1014.0 |
| 20260505041503 | 52 | 215 | 1.0 | 3.0 | 0.01 | 0.39 | 0.13 | 92 | 1014.1 |
| 20260505041003 | 52 | 215 | 1.0 | 3.0 | 0.01 | 0.39 | 0.13 | 92 | 1014.2 |
| 20260505040503 | 52 | 215 | 1.0 | 3.0 | 0.01 | 0.39 | 0.13 | 92 | 1014.1 |
| 20260505040004 | 52 | 0 | 0.0 | 0.0 | 0.01 | 0.39 | 0.13 | 92 | 1014.0 |
| 20260505035503 | 52 | 272 | 0.0 | 1.0 | 0.01 | 0.39 | 0.13 | 92 | 1014.0 |
| 20260505035017 | 52 | 272 | 0.0 | 2.0 | 0.01 | 0.39 | 0.13 | 92 | 1014.0 |
| 20260505034504 | 52 | 272 | 0.0 | 2.0 | 0.01 | 0.39 | 0.13 | 92 | 1014.1 |
| 20260505034003 | 52 | 0 | 0.0 | 0.0 | 0.01 | 0.39 | 0.13 | 92 | 1014.1 |
| 20260505033503 | 52 | 252 | 0.0 | 1.0 | 0.00 | 0.38 | 0.13 | 92 | 1014.1 |
| 20260505033017 | 52 | 252 | 0.0 | 1.0 | 0.00 | 0.38 | 0.13 | 92 | 1014.1 |
| 20260505032503 | 52 | 214 | 0.0 | 3.0 | 0.00 | 0.38 | 0.13 | 92 | 1014.1 |
| 20260505032003 | 52 | 197 | 0.0 | 3.0 | 0.00 | 0.38 | 0.13 | 92 | 1014.1 |
| 20260505031503 | 52 | 184 | 1.0 | 3.0 | 0.00 | 0.38 | 0.13 | 92 | 1014.1 |
| 20260505031003 | 52 | 181 | 2.0 | 5.0 | 0.00 | 0.38 | 0.13 | 92 | 1014.1 |
| 20260505030503 | 52 | 170 | 1.0 | 5.0 | 0.00 | 0.39 | 0.13 | 92 | 1014.1 |
| 20260505030003 | 52 | 139 | 1.0 | 3.0 | 0.00 | 0.39 | 0.13 | 92 | 1014.0 |
| 20260505025503 | 52 | 102 | 1.0 | 3.0 | 0.01 | 0.39 | 0.13 | 92 | 1014.0 |
| 20260505025003 | 52 | 73 | 1.0 | 3.0 | 0.01 | 0.39 | 0.13 | 92 | 1014.1 |
| 20260505024503 | 52 | 16 | 1.0 | 4.0 | 0.01 | 0.39 | 0.13 | 92 | 1014.1 |
| 20260505024003 | 52 | 318 | 1.0 | 4.0 | 0.01 | 0.39 | 0.13 | 93 | 1014.1 |
| 20260505023503 | 52 | 307 | 1.0 | 3.0 | 0.01 | 0.40 | 0.13 | 93 | 1014.1 |
| 20260505023003 | 52 | 304 | 1.0 | 4.0 | 0.01 | 0.40 | 0.13 | 93 | 1014.1 |
| 20260505022503 | 52 | 293 | 2.0 | 6.0 | 0.01 | 0.40 | 0.13 | 93 | 1014.2 |
| 20260505022003 | 52 | 260 | 2.0 | 6.0 | 0.01 | 0.40 | 0.13 | 93 | 1014.2 |
| 20260505021503 | 52 | 245 | 1.0 | 5.0 | 0.01 | 0.40 | 0.13 | 93 | 1014.1 |
| 20260505021003 | 52 | 288 | 1.0 | 5.0 | 0.01 | 0.40 | 0.13 | 93 | 1014.2 |
| 20260505020503 | 52 | 280 | 2.0 | 7.0 | 0.01 | 0.40 | 0.13 | 93 | 1014.2 |
| 20260505020017 | 52 | 237 | 2.0 | 7.0 | 0.01 | 0.40 | 0.13 | 93 | 1014.3 |
| 20260505015503 | 53 | 188 | 2.0 | 6.0 | 0.00 | 0.39 | 0.12 | 93 | 1014.3 |
| 20260505015003 | 53 | 357 | 1.0 | 4.0 | 0.00 | 0.39 | 0.12 | 93 | 1014.3 |
| 20260505014503 | 53 | 342 | 0.0 | 2.0 | 0.00 | 0.39 | 0.12 | 93 | 1014.3 |
| 20260505014017 | 53 | 342 | 0.0 | 2.0 | 0.00 | 0.39 | 0.12 | 93 | 1014.3 |
| 20260505013503 | 53 | 342 | 0.0 | 2.0 | 0.00 | 0.39 | 0.12 | 93 | 1014.3 |
| 20260505013017 | 53 | 0 | 0.0 | 0.0 | 0.00 | 0.39 | 0.12 | 93 | 1014.4 |
| 20260505012503 | 53 | 342 | 0.0 | 1.0 | 0.00 | 0.39 | 0.12 | 93 | 1014.4 |
| 20260505012003 | 53 | 342 | 0.0 | 1.0 | 0.00 | 0.39 | 0.12 | 93 | 1014.5 |
| 20260505011503 | 53 | 342 | 0.0 | 1.0 | 0.00 | 0.39 | 0.12 | 93 | 1014.5 |
| 20260505011017 | 52 | 342 | 1.0 | 3.0 | 0.00 | 0.39 | 0.12 | 93 | 1014.6 |
| 20260505010503 | 52 | 343 | 1.0 | 3.0 | 0.00 | 0.39 | 0.12 | 93 | 1014.6 |
| 20260505010003 | 52 | 344 | 1.0 | 3.0 | 0.00 | 0.39 | 0.12 | 93 | 1014.6 |
| 20260505005503 | 52 | 344 | 1.0 | 3.0 | 0.00 | 0.39 | 0.12 | 93 | 1014.5 |